User: anonymous   Login
Location: Unspecified
(0.0000°N, 0.0000°E)
Time: 00:42:09
(UTC+00:00)
Language:

LANDSAT 8 - Orbit

View from above orbital plane
View from above orbital plane
View from above satellite
View from above satellite

Ground track
Ground track

The orbit data is extracted from the following two-line orbital elements,

1 39084U 13008A   17026.49316363 -.00000029  00000-0  35494-5 0  9999
2 39084  98.2000  99.0749 0001140  74.9463 285.1588 14.57117992210424
Epoch (UTC): 26 January 2017 11:50:09
Eccentricity: 0.0001140
inclination: 98.2000°
perigee height: 701 km
apogee height: 703 km
right ascension of ascending node: 99.0749°
argument of perigee: 74.9463°
revolutions per day: 14.57117992
mean anomaly at epoch: 285.1588°
orbit number at epoch: 21042

The dashed part of the orbit path shows where the satellite is in the earth's shadow,  

DLR